Date,TemperatureHighF,TemperatureAvgF,TemperatureLowF,DewpointHighF,DewpointAvgF,DewpointLowF,HumidityHigh,HumidityAvg,HumidityLow,PressureMaxIn,PressureMinIn,WindSpeedMaxMPH,WindSpeedAvgMPH,GustSpeedMaxMPH,PrecipitationSumIn
2013-1-1,18,6,1,-100,-100,-100,0,0,100,0.00,40.00,0,-999,0,0.00
2013-1-2,29,11,1,-100,-100,-100,0,0,100,0.00,40.00,0,-999,0,0.00
2013-1-3,21,10,-2,-100,-100,-100,0,0,100,0.00,40.00,0,-999,0,0.00
2013-1-4,31,21,12,-100,-100,-100,0,0,100,0.00,40.00,0,-999,0,0.00
2013-1-5,40,25,16,-100,-100,-100,0,0,100,0.00,40.00,0,-999,0,0.00
2013-1-6,40,25,18,-100,-100,-100,0,0,100,0.00,40.00,0,-999,0,0.00
2013-1-31,34,24,14,-100,-100,-100,0,0,100,0.00,40.00,0,-999,0,0.01
2013-2-1,36,24,14,-100,-100,-100,0,0,100,0.00,40.00,0,-999,0,0.00
2013-2-2,41,29,19,-100,-100,-100,0,0,100,0.00,40.00,0,-999,0,0.00
2013-2-3,40,29,22,-100,-100,-100,0,0,100,0.00,40.00,0,-999,0,0.00
2013-2-4,44,28,18,-100,-100,-100,0,0,100,0.00,40.00,0,-999,0,0.00
2013-2-5,48,31,21,-100,-100,-100,0,0,100,0.00,40.00,0,-999,0,0.00
2013-2-6,40,29,19,-100,-100,-100,0,0,100,0.00,40.00,0,-999,0,0.00
2013-2-7,40,24,13,-100,-100,-100,0,0,100,0.00,40.00,0,-999,0,0.00
2013-2-8,32,26,18,-100,-100,-100,0,0,100,0.00,40.00,0,-999,0,0.00
2013-2-9,23,16,8,-100,-100,-100,0,0,100,0.00,40.00,0,-999,0,0.01
2013-2-10,21,13,7,-100,-100,-100,0,0,100,0.00,40.00,0,-999,0,0.01
2013-2-11,18,11,-1,-100,-100,-100,0,0,100,0.00,40.00,0,-999,0,0.01
2013-2-12,24,13,-1,-100,-100,-100,0,0,100,0.00,40.00,0,-999,0,0.00
2013-2-13,37,21,10,-100,-100,-100,0,0,100,0.00,40.00,0,-999,0,0.00
2013-2-14,30,20,10,-100,-100,-100,0,0,100,0.00,40.00,0,-999,0,0.00
2013-2-15,29,18,9,-100,-100,-100,0,0,100,0.00,40.00,0,-999,0,0.00
2013-2-16,40,28,17,-100,-100,-100,0,0,100,0.00,40.00,0,-999,0,0.01
2013-2-17,38,26,16,-100,-100,-100,0,0,100,0.00,40.00,0,-999,0,0.00
2013-2-18,31,20,11,-100,-100,-100,0,0,100,0.00,40.00,0,-999,0,0.00
2013-2-19,35,23,10,-100,-100,-100,0,0,100,0.00,40.00,0,-999,0,0.00
2013-2-20,25,19,8,-100,-100,-100,0,0,100,0.00,40.00,0,-999,0,0.01
2013-2-21,26,16,8,-100,-100,-100,0,0,100,0.00,40.00,0,-999,0,0.00
2013-2-22,23,14,5,-100,-100,-100,0,0,100,0.00,40.00,0,-999,0,0.00
2013-2-23,33,13,2,-100,-100,-100,0,0,100,0.00,40.00,0,-999,0,0.00
2013-2-25,25,18,13,-100,-100,-100,0,0,100,0.00,40.00,0,-999,0,0.00
2013-2-26,21,12,3,-100,-100,-100,0,0,100,0.00,40.00,0,-999,0,0.00
2013-2-27,28,12,1,-100,-100,-100,0,0,100,0.00,40.00,0,-999,0,0.00
2013-2-28,33,19,5,-100,-100,-100,0,0,100,0.00,40.00,0,-999,0,0.00
2013-3-1,40,29,15,-100,-100,-100,0,0,100,0.00,40.00,0,-999,0,0.01
2013-3-2,47,34,23,-100,-100,-100,0,0,100,0.00,40.00,0,-999,0,0.00
2013-3-3,41,33,28,-100,-100,-100,0,0,100,0.00,40.00,0,-999,0,0.00
2013-3-4,35,28,14,-100,-100,-100,0,0,100,0.00,40.00,0,-999,0,0.01
2013-3-5,47,30,13,-100,-100,-100,0,0,100,0.00,40.00,0,-999,0,0.01
2013-3-6,43,32,21,-100,-100,-100,0,0,100,0.00,40.00,0,-999,0,0.00
2013-3-7,43,35,27,-100,-100,-100,0,0,100,0.00,40.00,0,-999,0,0.00
2013-3-8,39,29,23,-100,-100,-100,0,0,100,0.00,40.00,0,-999,0,0.02
2013-3-9,23,18,13,-100,-100,-100,0,0,100,0.00,40.00,0,-999,0,0.01
2013-3-10,32,21,8,-100,-100,-100,0,0,100,0.00,40.00,0,-999,0,0.01
2013-3-11,43,26,17,-100,-100,-100,0,0,100,0.00,40.00,0,-999,0,0.00
2013-3-12,45,33,20,-100,-100,-100,0,0,100,0.00,40.00,0,-999,0,0.00
2013-3-13,49,36,24,-100,-100,-100,0,0,100,0.00,40.00,0,-999,0,0.00
2013-3-14,52,38,29,-100,-100,-100,0,0,100,0.00,40.00,0,-999,0,0.00
2013-3-15,53,41,31,-100,-100,-100,0,0,100,0.00,40.00,0,-999,0,0.00
2013-3-16,46,36,31,-100,-100,-100,0,0,100,0.00,40.00,0,-999,0,0.00
2013-3-17,39,30,24,-100,-100,-100,0,0,100,0.00,40.00,0,-999,0,0.00
2013-3-18,38,28,15,-100,-100,-100,0,0,100,0.00,40.00,0,-999,0,0.01
2013-3-19,38,31,24,-100,-100,-100,0,0,100,0.00,40.00,0,-999,0,0.00
2013-3-20,42,30,19,-100,-100,-100,0,0,100,0.00,40.00,0,-999,0,0.00
2013-3-21,42,34,27,-100,-100,-100,0,0,100,0.00,40.00,0,-999,0,0.01
2013-3-22,32,26,18,-100,-100,-100,0,0,100,0.00,40.00,0,-999,0,0.00
2013-3-23,23,14,3,-100,-100,-100,0,0,100,0.00,40.00,0,-999,0,0.00
2013-3-24,26,12,-3,-100,-100,-100,0,0,100,0.00,40.00,0,-999,0,0.00
2013-3-25,34,19,2,-100,-100,-100,0,0,100,0.00,40.00,0,-999,0,0.00
2013-3-26,40,30,16,-100,-100,-100,0,0,100,0.00,40.00,0,-999,0,0.01
2013-3-27,44,34,26,-100,-100,-100,0,0,100,0.00,40.00,0,-999,0,0.00
2013-3-28,46,35,26,-100,-100,-100,0,0,100,0.00,40.00,0,-999,0,0.00
2013-3-29,46,35,28,-100,-100,-100,0,0,100,0.00,40.00,0,-999,0,0.00
2013-3-30,49,36,28,-100,-100,-100,0,0,100,0.00,40.00,0,-999,0,0.00
2013-3-31,48,36,26,-100,-100,-100,0,0,100,0.00,40.00,0,-999,0,0.00
2013-4-1,46,38,29,-100,-100,-100,0,0,100,0.00,40.00,0,-999,0,0.00
2013-4-2,43,31,25,-100,-100,-100,0,0,100,0.00,40.00,0,-999,0,0.00
2013-4-3,43,31,22,-100,-100,-100,0,0,100,0.00,40.00,0,-999,0,0.00
2013-4-4,51,36,25,-100,-100,-100,0,0,100,0.00,40.00,0,-999,0,0.00
2013-4-5,46,39,32,-100,-100,-100,0,0,100,0.00,40.00,0,-999,0,0.00
2013-4-6,48,38,29,-100,-100,-100,0,0,100,0.00,40.00,0,-999,0,0.00
2013-4-7,46,38,29,-100,-100,-100,0,0,100,0.00,40.00,0,-999,0,0.00
2013-4-8,40,35,31,-100,-100,-100,0,0,100,0.00,40.00,0,-999,0,0.00
2013-4-9,32,26,23,-100,-100,-100,0,0,100,0.00,40.00,0,-999,0,0.04
2013-4-10,37,24,15,-100,-100,-100,0,0,100,0.00,40.00,0,-999,0,0.01
2013-4-11,43,30,13,-100,-100,-100,0,0,100,0.00,40.00,0,-999,0,0.00
2013-4-12,45,31,19,-100,-100,-100,0,0,100,0.00,40.00,0,-999,0,0.00
2013-4-13,44,33,21,-100,-100,-100,0,0,100,0.00,40.00,0,-999,0,0.00
2013-4-14,38,34,30,-100,-100,-100,0,0,100,0.00,40.00,0,-999,0,0.01
2013-4-15,41,36,30,-100,-100,-100,0,0,100,0.00,40.00,0,-999,0,0.01
2013-4-16,47,38,31,-100,-100,-100,0,0,100,0.00,40.00,0,-999,0,0.00
2013-4-17,34,25,12,-100,-100,-100,0,0,100,0.00,40.00,0,-999,0,0.01
2013-4-18,26,13,3,-100,-100,-100,0,0,100,0.00,40.00,0,-999,0,0.02
2013-4-19,40,24,8,-100,-100,-100,0,0,100,0.00,40.00,0,-999,0,0.01
2013-4-20,42,30,19,-100,-100,-100,0,0,100,0.00,40.00,0,-999,0,0.00
2013-4-21,46,34,20,-100,-100,-100,0,0,100,0.00,40.00,0,-999,0,0.00
2013-4-22,47,38,30,-100,-100,-100,0,0,100,0.00,40.00,0,-999,0,0.00
2013-4-23,40,37,33,-100,-100,-100,0,0,100,0.00,40.00,0,-999,0,0.00
2013-4-24,42,37,30,-100,-100,-100,0,0,100,0.00,40.00,0,-999,0,0.00
2013-4-25,45,36,29,-100,-100,-100,0,0,100,0.00,40.00,0,-999,0,0.00
2013-4-26,49,36,27,-100,-100,-100,0,0,100,0.00,40.00,0,-999,0,0.00
2013-4-27,50,39,27,-100,-100,-100,0,0,100,0.00,40.00,0,-999,0,0.00
2013-4-28,55,40,32,-100,-100,-100,0,0,100,0.00,40.00,0,-999,0,0.00
2013-4-29,56,47,36,-100,-100,-100,0,0,100,0.00,40.00,0,-999,0,0.00
2013-4-30,55,46,38,-100,-100,-100,0,0,100,0.00,40.00,0,-999,0,0.00
2013-5-1,46,40,25,-100,-100,-100,0,0,100,0.00,40.00,0,-999,0,0.00
2013-5-2,43,30,17,-100,-100,-100,0,0,100,0.00,40.00,0,-999,0,0.00
2013-5-3,51,38,25,-100,-100,-100,0,0,100,0.00,40.00,0,-999,0,0.00
2013-5-4,50,38,28,-100,-100,-100,0,0,100,0.00,40.00,0,-999,0,0.00
2013-5-5,46,36,30,-100,-100,-100,0,0,100,0.00,40.00,0,-999,0,0.00
2013-5-6,42,34,31,-100,-100,-100,0,0,100,0.00,40.00,0,-999,0,0.01
2013-5-7,47,37,30,-100,-100,-100,0,0,100,0.00,40.00,0,-999,0,0.01
2013-5-8,40,34,30,-100,-100,-100,0,0,100,0.00,40.00,0,-999,0,0.00
2013-5-9,37,31,25,-100,-100,-100,0,0,100,0.00,40.00,0,-999,0,0.01
2013-5-10,45,33,26,-100,-100,-100,0,0,100,0.00,40.00,0,-999,0,0.01
2013-5-11,48,37,29,-100,-100,-100,0,0,100,0.00,40.00,0,-999,0,0.00
2013-5-12,51,42,31,-100,-100,-100,0,0,100,0.00,40.00,0,-999,0,0.00
2013-5-13,58,45,37,-100,-100,-100,0,0,100,0.00,40.00,0,-999,0,0.00
2013-5-14,59,44,37,-100,-100,-100,0,0,100,0.00,40.00,0,-999,0,0.01
2013-5-15,57,44,38,-100,-100,-100,0,0,100,0.00,40.00,0,-999,0,0.01
2013-5-16,58,46,35,-100,-100,-100,0,0,100,0.00,40.00,0,-999,0,0.00
2013-5-17,58,46,36,-100,-100,-100,0,0,100,0.00,40.00,0,-999,0,0.00
2013-5-18,49,41,34,-100,-100,-100,0,0,100,0.00,40.00,0,-999,0,0.00
2013-5-19,45,36,30,-100,-100,-100,0,0,100,0.00,40.00,0,-999,0,0.00
2013-5-20,47,35,28,-100,-100,-100,0,0,100,0.00,40.00,0,-999,0,0.01
2013-5-21,52,40,28,-100,-100,-100,0,0,100,0.00,40.00,0,-999,0,0.01
2013-5-22,58,46,35,-100,-100,-100,0,0,100,0.00,40.00,0,-999,0,0.00
2013-5-23,60,50,37,-100,-100,-100,0,0,100,0.00,40.00,0,-999,0,0.00
2013-5-24,60,49,38,-100,-100,-100,0,0,100,0.00,40.00,0,-999,0,0.00
2013-5-25,60,48,38,-100,-100,-100,0,0,100,0.00,40.00,0,-999,0,0.00
2013-5-26,58,48,38,-100,-100,-100,0,0,100,0.00,40.00,0,-999,0,0.00
2013-5-27,57,46,35,-100,-100,-100,0,0,100,0.00,40.00,0,-999,0,0.00
2013-5-28,58,45,35,-100,-100,-100,0,0,100,0.00,40.00,0,-999,0,0.00
2013-5-29,51,43,35,-100,-100,-100,0,0,100,0.00,40.00,0,-999,0,0.00
2013-5-30,54,43,34,-100,-100,-100,0,0,100,0.00,40.00,0,-999,0,0.00
2013-5-31,57,46,34,-100,-100,-100,0,0,100,0.00,40.00,0,-999,0,0.00
2013-6-1,60,46,32,-100,-100,-100,0,0,100,0.00,40.00,0,-999,0,0.00
2013-6-2,64,50,37,-100,-100,-100,0,0,100,0.00,40.00,0,-999,0,0.00
2013-6-3,63,51,41,-100,-100,-100,0,0,100,0.00,40.00,0,-999,0,0.00
2013-6-4,65,53,42,-100,-100,-100,0,0,100,0.00,40.00,0,-999,0,0.00
2013-6-5,61,52,44,-100,-100,-100,0,0,100,0.00,40.00,0,-999,0,0.00
2013-6-6,61,48,41,-100,-100,-100,0,0,100,0.00,40.00,0,-999,0,0.00
2013-6-7,57,47,40,-100,-100,-100,0,0,100,0.00,40.00,0,-999,0,0.00
2013-6-8,70,54,41,-100,-100,-100,0,0,100,0.00,40.00,0,-999,0,0.00
2013-6-9,73,58,45,-100,-100,-100,0,0,100,0.00,40.00,0,-999,0,0.00
2013-6-10,73,59,49,-100,-100,-100,0,0,100,0.00,40.00,0,-999,0,0.00
2013-6-11,66,57,45,-100,-100,-100,0,0,100,0.00,40.00,0,-999,0,0.91
2013-6-12,69,56,47,-100,-100,-100,0,0,100,0.00,40.00,0,-999,0,0.68
2013-6-13,70,58,47,-100,-100,-100,0,0,100,0.00,40.00,0,-999,0,0.68
2013-6-14,68,55,44,-100,-100,-100,0,0,100,0.00,40.00,0,-999,0,0.00
2013-6-15,66,54,44,-100,-100,-100,0,0,100,0.00,40.00,0,-999,0,0.00
2013-6-16,65,54,41,-100,-100,-100,0,0,100,0.00,40.00,0,-999,0,0.00
2013-6-17,66,53,43,-100,-100,-100,0,0,100,0.00,40.00,0,-999,0,0.00
2013-6-18,62,53,40,-100,-100,-100,0,0,100,0.00,40.00,0,-999,0,0.00
2013-6-19,66,55,43,-100,-100,-100,0,0,100,0.00,40.00,0,-999,0,0.00
2013-6-20,64,51,44,-100,-100,-100,0,0,100,0.00,40.00,0,-999,0,0.00
2013-6-22,64,58,46,-100,-100,-100,0,0,100,0.00,40.00,0,-999,0,0.00
2013-6-23,67,56,43,-100,-100,-100,0,0,100,0.00,40.00,0,-999,0,0.00
2013-6-24,62,54,41,-100,-100,-100,0,0,100,0.00,40.00,0,-999,0,0.00
2013-6-25,65,53,42,-100,-100,-100,0,0,100,0.00,40.00,0,-999,0,0.00
2013-6-26,74,58,46,-100,-100,-100,0,0,100,0.00,40.00,0,-999,0,0.00
2013-6-27,74,60,52,-100,-100,-100,0,0,100,0.00,40.00,0,-999,0,0.00
2013-6-28,70,56,50,-100,-100,-100,0,0,100,0.00,40.00,0,-999,0,0.00
2013-6-29,66,52,47,-100,-100,-100,0,0,100,0.00,40.00,0,-999,0,0.01
2013-6-30,69,52,43,-100,-100,-100,0,0,100,0.00,40.00,0,-999,0,0.04
2013-7-1,64,52,42,-100,-100,-100,0,0,100,0.00,40.00,0,-999,0,0.03
2013-7-2,63,50,42,-100,-100,-100,0,0,100,0.00,40.00,0,-999,0,0.01
2013-7-3,64,52,40,-100,-100,-100,0,0,100,0.00,40.00,0,-999,0,0.01
2013-7-4,68,53,46,-100,-100,-100,0,0,100,0.00,40.00,0,-999,0,0.02
2013-7-5,65,52,45,-100,-100,-100,0,0,100,0.00,40.00,0,-999,0,0.02
2013-7-6,63,51,46,-100,-100,-100,0,0,100,0.00,40.00,0,-999,0,0.01
2013-7-7,64,55,46,-100,-100,-100,0,0,100,0.00,40.00,0,-999,0,0.00
2013-7-8,69,54,47,-100,-100,-100,0,0,100,0.00,40.00,0,-999,0,0.01
2013-7-9,69,54,48,-100,-100,-100,0,0,100,0.00,40.00,0,-999,0,0.02
2013-7-10,65,53,49,-100,-100,-100,0,0,100,0.00,40.00,0,-999,0,0.01
2013-7-11,65,53,48,-100,-100,-100,0,0,100,0.00,40.00,0,-999,0,0.05
2013-7-12,63,53,46,-100,-100,-100,0,0,100,0.00,40.00,0,-999,0,0.05
2013-7-13,68,57,48,-100,-100,-100,0,0,100,0.00,40.00,0,-999,0,0.01
2013-7-14,65,53,46,-100,-100,-100,0,0,100,0.00,40.00,0,-999,0,0.01
2013-7-15,55,50,46,-100,-100,-100,0,0,100,0.00,40.00,0,-999,0,0.00
2013-7-16,60,49,40,-100,-100,-100,0,0,100,0.00,40.00,0,-999,0,0.00
2013-7-17,65,53,42,-100,-100,-100,0,0,100,0.00,40.00,0,-999,0,0.00
2013-7-18,65,55,45,-100,-100,-100,0,0,100,0.00,40.00,0,-999,0,0.00
2013-7-19,62,50,46,-100,-100,-100,0,0,100,0.00,40.00,0,-999,0,0.03
2013-7-20,67,53,45,-100,-100,-100,0,0,100,0.00,40.00,0,-999,0,0.02
2013-7-21,69,55,46,-100,-100,-100,0,0,100,0.00,40.00,0,-999,0,0.00
2013-7-22,68,56,49,-100,-100,-100,0,0,100,0.00,40.00,0,-999,0,0.00
2013-7-23,69,56,50,-100,-100,-100,0,0,100,0.00,40.00,0,-999,0,0.01
2013-7-24,67,56,48,-100,-100,-100,0,0,100,0.00,40.00,0,-999,0,0.01
2013-7-25,65,54,44,-100,-100,-100,0,0,100,0.00,40.00,0,-999,0,0.02
2013-7-26,64,52,45,-100,-100,-100,0,0,100,0.00,40.00,0,-999,0,0.01
2013-7-27,61,50,44,-100,-100,-100,0,0,100,0.00,40.00,0,-999,0,0.01
2013-7-28,56,49,44,-100,-100,-100,0,0,100,0.00,40.00,0,-999,0,0.02
2013-7-29,62,51,44,-100,-100,-100,0,0,100,0.00,40.00,0,-999,0,0.01
2013-7-30,63,53,43,-100,-100,-100,0,0,100,0.00,40.00,0,-999,0,0.00
2013-7-31,68,58,47,-100,-100,-100,0,0,100,0.00,40.00,0,-999,0,0.00
2013-8-1,58,52,47,-100,-100,-100,0,0,100,0.00,40.00,0,-999,0,0.01
2013-8-2,64,52,45,-100,-100,-100,0,0,100,0.00,40.00,0,-999,0,0.01
2013-8-3,63,51,45,-100,-100,-100,0,0,100,0.00,40.00,0,-999,0,0.01
2013-8-4,68,55,45,-100,-100,-100,0,0,100,0.00,40.00,0,-999,0,0.01
2013-8-5,67,54,45,-100,-100,-100,0,0,100,0.00,40.00,0,-999,0,0.00
2013-8-6,60,50,45,-100,-100,-100,0,0,100,0.00,40.00,0,-999,0,0.02
2013-8-7,55,46,42,-100,-100,-100,0,0,100,0.00,40.00,0,-999,0,0.02
2013-8-8,52,45,41,-100,-100,-100,0,0,100,0.00,40.00,0,-999,0,0.01
2013-8-9,59,47,38,-100,-100,-100,0,0,100,0.00,40.00,0,-999,0,0.01
2013-8-10,62,48,37,-100,-100,-100,0,0,100,0.00,40.00,0,-999,0,0.01
2013-8-11,60,47,38,-100,-100,-100,0,0,100,0.00,40.00,0,-999,0,0.02
2013-8-12,59,48,42,-100,-100,-100,0,0,100,0.00,40.00,0,-999,0,0.01
2013-8-13,61,48,41,-100,-100,-100,0,0,100,0.00,40.00,0,-999,0,0.01
2013-8-14,60,50,44,-100,-100,-100,0,0,100,0.00,40.00,0,-999,0,0.00
2013-8-15,64,58,47,-100,-100,-100,0,0,100,0.00,40.00,0,-999,0,0.00
2013-8-16,66,59,48,-100,-100,-100,0,0,100,0.00,40.00,0,-999,0,0.00
2013-8-17,65,57,50,-100,-100,-100,0,0,100,0.00,40.00,0,-999,0,0.00
2013-8-18,61,53,47,-100,-100,-100,0,0,100,0.00,40.00,0,-999,0,0.00
2013-8-19,65,54,45,-100,-100,-100,0,0,100,0.00,40.00,0,-999,0,0.01
2013-8-20,63,54,47,-100,-100,-100,0,0,100,0.00,40.00,0,-999,0,0.00
2013-8-21,63,54,48,-100,-100,-100,0,0,100,0.00,40.00,0,-999,0,0.00
2013-8-22,64,52,45,-100,-100,-100,0,0,100,0.00,40.00,0,-999,0,0.01
2013-8-23,65,54,45,-100,-100,-100,0,0,100,0.00,40.00,0,-999,0,0.01
2013-8-24,59,51,45,-100,-100,-100,0,0,100,0.00,40.00,0,-999,0,0.00
2013-8-25,53,50,46,-100,-100,-100,0,0,100,0.00,40.00,0,-999,0,0.01
2013-8-26,62,53,46,-100,-100,-100,0,0,100,0.00,40.00,0,-999,0,0.01
2013-8-27,63,53,46,-100,-100,-100,0,0,100,0.00,40.00,0,-999,0,0.00
2013-8-28,59,57,50,-100,-100,-100,0,0,100,0.00,40.00,0,-999,0,0.00
2013-8-29,65,55,46,-100,-100,-100,0,0,100,0.00,40.00,0,-999,0,0.00
2013-8-30,68,59,50,-100,-100,-100,0,0,100,0.00,40.00,0,-999,0,0.01
2013-8-31,65,54,50,-100,-100,-100,0,0,100,0.00,40.00,0,-999,0,0.00
2013-9-1,69,56,47,-100,-100,-100,0,0,100,0.00,40.00,0,-999,0,0.00
2013-9-2,65,50,45,-100,-100,-100,0,0,100,0.00,40.00,0,-999,0,0.00
2013-9-3,59,50,46,-100,-100,-100,0,0,100,0.00,40.00,0,-999,0,0.01
2013-9-4,68,58,47,-100,-100,-100,0,0,100,0.00,40.00,0,-999,0,0.02
2013-9-5,68,56,47,-100,-100,-100,0,0,100,0.00,40.00,0,-999,0,0.00
2013-9-6,67,56,47,-100,-100,-100,0,0,100,0.00,40.00,0,-999,0,0.00
2013-9-7,66,56,47,-100,-100,-100,0,0,100,0.00,40.00,0,-999,0,0.00
2013-9-8,64,53,46,-100,-100,-100,0,0,100,0.00,40.00,0,-999,0,0.00
2013-9-9,57,52,45,-100,-100,-100,0,0,100,0.00,40.00,0,-999,0,0.00
2013-9-10,53,48,44,-100,-100,-100,0,0,100,0.00,40.00,0,-999,0,0.00
2013-9-11,58,51,45,-100,-100,-100,0,0,100,0.00,40.00,0,-999,0,0.02
2013-9-12,54,46,42,-100,-100,-100,0,0,100,0.00,40.00,0,-999,0,0.00
2013-9-13,50,46,43,-100,-100,-100,0,0,100,0.00,40.00,0,-999,0,0.01
2013-9-14,51,44,40,-100,-100,-100,0,0,100,0.00,40.00,0,-999,0,0.01
2013-9-15,55,45,39,-100,-100,-100,0,0,100,0.00,40.00,0,-999,0,0.01
2013-9-16,54,45,39,-100,-100,-100,0,0,100,0.00,40.00,0,-999,0,0.00
2013-9-17,58,48,41,-100,-100,-100,0,0,100,0.00,40.00,0,-999,0,0.01
2013-9-18,48,44,41,-100,-100,-100,0,0,100,0.00,40.00,0,-999,0,0.01
2013-9-19,56,46,40,-100,-100,-100,0,0,100,0.00,40.00,0,-999,0,0.01
2013-9-20,60,48,38,-100,-100,-100,0,0,100,0.00,40.00,0,-999,0,0.00
2013-9-21,58,47,40,-100,-100,-100,0,0,100,0.00,40.00,0,-999,0,0.00
2013-9-22,48,42,32,-100,-100,-100,0,0,100,0.00,40.00,0,-999,0,0.02
2013-9-23,43,36,31,-100,-100,-100,0,0,100,0.00,40.00,0,-999,0,0.04
2013-9-24,59,44,33,-100,-100,-100,0,0,100,0.00,40.00,0,-999,0,0.01
2013-9-25,55,48,40,-100,-100,-100,0,0,100,0.00,40.00,0,-999,0,0.00
2013-9-26,53,47,41,-100,-100,-100,0,0,100,0.00,40.00,0,-999,0,0.00
2013-9-27,44,34,24,-100,-100,-100,0,0,100,0.00,40.00,0,-999,0,0.01
2013-10-2,56,46,35,-100,-100,-100,0,0,100,0.00,40.00,0,-999,0,0.00
2013-10-3,51,45,38,-100,-100,-100,0,0,100,0.00,40.00,0,-999,0,0.00
2013-10-4,42,35,26,-100,-100,-100,0,0,100,0.00,40.00,0,-999,0,0.00
2013-10-5,46,34,21,-100,-100,-100,0,0,100,0.00,40.00,0,-999,0,0.00
2013-10-6,55,42,32,-100,-100,-100,0,0,100,0.00,40.00,0,-999,0,0.01
2013-10-7,58,43,36,-100,-100,-100,0,0,100,0.00,40.00,0,-999,0,0.01
2013-10-8,53,43,35,-100,-100,-100,0,0,100,0.00,40.00,0,-999,0,0.00
2013-10-9,50,42,35,-100,-100,-100,0,0,100,0.00,40.00,0,-999,0,0.00
2013-10-10,39,34,30,-100,-100,-100,0,0,100,0.00,40.00,0,-999,0,0.00
2013-10-11,40,30,24,-100,-100,-100,0,0,100,0.00,40.00,0,-999,0,0.03
2013-10-12,44,32,24,-100,-100,-100,0,0,100,0.00,40.00,0,-999,0,0.00
2013-10-13,47,41,36,-100,-100,-100,0,0,100,0.00,40.00,0,-999,0,0.01
2013-10-21,31,31,30,-100,-100,-100,0,0,100,0.00,40.00,0,-999,0,0.00
2013-10-22,51,39,34,-100,-100,-100,0,0,100,0.00,40.00,0,-999,0,0.00
2013-10-23,34,34,34,-100,-100,-100,0,0,100,0.00,40.00,0,-999,0,0.00
2013-10-24,51,44,37,-100,-100,-100,0,0,100,0.00,40.00,0,-999,0,0.00
2013-10-25,35,34,33,-100,-100,-100,0,0,100,0.00,40.00,0,-999,0,0.00
2013-10-26,38,33,29,-100,-100,-100,0,0,100,0.00,40.00,0,-999,0,0.00
2013-10-27,35,32,30,-100,-100,-100,0,0,100,0.00,40.00,0,-999,0,0.00
2013-11-12,47,36,30,-100,-100,-100,0,0,100,0.00,40.00,0,-999,0,0.00
2013-11-13,39,34,30,-100,-100,-100,0,0,100,0.00,40.00,0,-999,0,0.00
2013-11-14,42,32,26,-100,-100,-100,0,0,100,0.00,40.00,0,-999,0,0.00
2013-11-15,30,30,29,-100,-100,-100,0,0,100,0.00,40.00,0,-999,0,0.00
2013-11-16,27,25,24,-100,-100,-100,0,0,100,0.00,40.00,0,-999,0,0.00
2013-11-17,35,35,35,-100,-100,-100,0,0,100,0.00,40.00,0,-999,0,0.00
2013-11-18,44,27,18,-100,-100,-100,0,0,100,0.00,40.00,0,-999,0,0.00
2013-11-19,39,31,23,-100,-100,-100,0,0,100,0.00,40.00,0,-999,0,0.00
2013-11-20,30,27,23,-100,-100,-100,0,0,100,0.00,40.00,0,-999,0,0.00
2013-11-21,33,30,28,-100,-100,-100,0,0,100,0.00,40.00,0,-999,0,0.00
2013-11-22,28,27,26,-100,-100,-100,0,0,100,0.00,40.00,0,-999,0,0.00
2013-11-23,31,26,23,-100,-100,-100,0,0,100,0.00,40.00,0,-999,0,0.01
2013-11-24,30,23,18,-100,-100,-100,0,0,100,0.00,40.00,0,-999,0,0.02
2013-11-25,23,21,20,-100,-100,-100,0,0,100,0.00,40.00,0,-999,0,0.00
2013-11-26,33,24,18,-100,-100,-100,0,0,100,0.00,40.00,0,-999,0,0.00
2013-11-27,39,28,23,-100,-100,-100,0,0,100,0.00,40.00,0,-999,0,0.00
2013-11-28,40,29,24,-100,-100,-100,0,0,100,0.00,40.00,0,-999,0,0.00
2013-11-29,36,28,21,-100,-100,-100,0,0,100,0.00,40.00,0,-999,0,0.00
2013-11-30,36,26,21,-100,-100,-100,0,0,100,0.00,40.00,0,-999,0,0.00
2013-12-1,36,26,19,-100,-100,-100,0,0,100,0.00,40.00,0,-999,0,0.00
2013-12-2,36,36,36,-100,-100,-100,0,0,100,0.00,40.00,0,-999,0,0.00
2013-12-3,29,28,26,-100,-100,-100,0,0,100,0.00,40.00,0,-999,0,0.00
2013-12-4,24,20,12,-100,-100,-100,0,0,100,0.00,40.00,0,-999,0,0.00
2013-12-5,15,6,-1,-100,-100,-100,0,0,100,0.00,40.00,0,-999,0,0.04
2013-12-6,9,5,2,-100,-100,-100,0,0,100,0.00,40.00,0,-999,0,0.00
2013-12-7,14,11,8,-100,-100,-100,0,0,100,0.00,40.00,0,-999,0,0.01
2013-12-8,12,6,-2,-100,-100,-100,0,0,100,0.00,40.00,0,-999,0,0.04
2013-12-9,6,-2,-6,-100,-100,-100,0,0,100,0.00,40.00,0,-999,0,0.01
2013-12-10,26,17,7,-100,-100,-100,0,0,100,0.00,40.00,0,-999,0,0.00
2013-12-11,30,20,11,-100,-100,-100,0,0,100,0.00,40.00,0,-999,0,0.00
2013-12-12,21,19,18,-100,-100,-100,0,0,100,0.00,40.00,0,-999,0,0.00
2013-12-13,33,32,31,-100,-100,-100,0,0,100,0.00,40.00,0,-999,0,0.00
2013-12-14,26,24,22,-100,-100,-100,0,0,100,0.00,40.00,0,-999,0,0.00
2013-12-15,36,36,36,-100,-100,-100,0,0,100,0.00,40.00,0,-999,0,0.00
2013-12-16,43,33,25,-100,-100,-100,0,0,100,0.00,40.00,0,-999,0,0.00
2013-12-17,34,31,24,-100,-100,-100,0,0,100,0.00,40.00,0,-999,0,0.00
2013-12-18,29,28,28,-100,-100,-100,0,0,100,0.00,40.00,0,-999,0,0.00
2013-12-19,31,28,23,-100,-100,-100,0,0,100,0.00,40.00,0,-999,0,0.00
2013-12-22,23,15,5,-100,-100,-100,0,0,100,0.00,40.00,0,-999,0,0.00
2013-12-23,9,9,9,-100,-100,-100,0,0,100,0.00,40.00,0,-999,0,0.00
2013-12-24,19,19,19,-100,-100,-100,0,0,100,0.00,40.00,0,-999,0,0.00
2013-12-25,14,14,14,-100,-100,-100,0,0,100,0.00,40.00,0,-999,0,0.00
2013-12-26,38,35,31,-100,-100,-100,0,0,100,0.00,40.00,0,-999,0,0.00
2013-12-28,30,30,30,-100,-100,-100,0,0,100,0.00,40.00,0,-999,0,0.00
2013-12-29,20,19,18,-100,-100,-100,0,0,100,0.00,40.00,0,-999,0,0.00
2013-12-30,26,24,21,-100,-100,-100,0,0,100,0.00,40.00,0,-999,0,0.00
2013-12-31,33,33,33,-100,-100,-100,0,0,100,0.00,40.00,0,-999,0,0.00
2014-1-1,30,25,22,-100,-100,-100,0,0,100,0.00,40.00,0,-999,0,0.00
2014-1-2,18,18,18,-100,-100,-100,0,0,100,0.00,40.00,0,-999,0,0.00